Location: Bayshore Village Mobile Home Park
(26.6945°N, 81.8642°W)
Time: 00:52:04
(UTC+00:00)

Hubble Space Telescope - Pass Details

Date: 26 October 2021
Orbit: 534 x 538 km, 28.5° (Epoch: 30 November)

Event Time Altitude Azimuth Distance (km) Brightness Sun altitude
Rises 23:44:30 0° 226° (SW) 2,656 5.3 -13.0°
Reaches altitude 10° 23:47:00 10° 213° (SSW) 1,768 4.0 -13.6°
Maximum altitude 23:50:27 26° 156° (SSE) 1,061 2.1 -14.3°
Enters shadow 23:52:07 20° 119° (ESE) 1,265 2.2 -14.7°
